Tiempo atmosférico en la estación meteorológica de Las Palmas de Gran Canaria, Tafira, Las Palmas (269 m.)



Fecha
DESCASC
Temp. máxima en grados centígrados (hora)
DESCASC
Temp. mínima en grados centígrados (hora)
DESCASC
Temp. media en grados centígrados
DESCASC
Racha de viento máxima en m/sg (hora)
DESCASC
Velocidad máxima media en intervalos de 10 minutos(hora)
DESCASC
Precipitaciones diarias en mm
DESCASC
Precipitaciones de 00:00 a 06:00 en mm
DESCASC
Precipitaciones de 06:00 a 12:00 en mm
DESCASC
Precipitaciones de 12:00 a 18:00 en mm
DESCASC
Precipitaciones de 18:00 a 24:00 en mm
DESCASC
11-12-2019 18.4 (12:10) 14.8 (07:10) 16.6 7.5 (13:50) 3.61 (13:50) 0 0 0 0 0
10-12-2019 19.2 (14:00) 13 (07:50) 16.1 5 (23:20) 2.78 (06:00) 0 0 0 0 0
09-12-2019 18.6 (13:10) 14.4 (23:10) 16.5 5.83 (13:10) 3.33 (12:40) 0 0 0 0 0
08-12-2019 18.6 (12:20) 15.3 (00:00) 17 7.22 (16:00) 3.89 (15:10) 0 0 0 0 0
07-12-2019 18.7 (13:00) 14.4 (00:00) 16.6 7.78 (08:10) 4.44 (08:10) 0 0 0 0 0
06-12-2019 17.9 (13:30) 13.6 (00:00) 15.8 11.39 (15:20) 6.94 (15:00) 14.8 8.6 0 1 5.2
05-12-2019 17.6 (00:10) 13.2 (00:00) 15.4 17.22 (05:20) 8.89 (10:50) 34 23 1.4 2.2 7.4
04-12-2019 20 (14:50) 14.6 (00:00) 17.3 12.78 (16:40) 6.11 (12:40) 0.2 0.2 0 0 0
03-12-2019 18.5 (11:40) 14.7 (00:00) 16.6 11.67 (05:30) 6.94 (10:20) 0.2 0.2 0 0 0
02-12-2019 19 (14:30) 15.2 (00:00) 17.1 10.83 (21:50) 6.39 (19:20) 3 0.2 0.8 0 2
01-12-2019 20.2 (14:40) 15.5 (00:00) 17.9 5.28 (17:10) 2.78 (14:50) 0 0 0 0 0
30-11-2019 24.1 (12:30) 15.8 (00:00) 20 6.67 (12:30) 3.61 (12:00) 0 0 0 0 0
29-11-2019 23.9 (13:20) 14.8 (00:00) 19.3 6.94 (14:30) 3.61 (13:50) 0 0 0 0 0
28-11-2019 20.4 (11:40) 16 (00:00) 18.2 3.89 (14:00) 2.5 (12:00) 0 0 0 0 0
27-11-2019 20 (13:00) 17.1 (00:00) 18.6 5.83 (20:20) 2.78 (17:00) 0 0 0 0 0
26-11-2019 20.5 (13:40) 16.8 (00:00) 18.6 6.67 (14:50) 4.17 (15:40) 0 0 0 0 0
25-11-2019 19.4 (12:20) 15.4 (00:00) 17.4 5.83 (10:30) 3.33 (15:30) 0 0 0 0 0
24-11-2019 20 (13:50) 16.9 (00:00) 18.4 7.22 (16:10) 4.17 (15:20) 0.4 0 0.4 0 0
23-11-2019 20.8 (11:30) 17.4 (00:00) 19.1 10 (10:30) 5.28 (11:00) 2.8 0 1.2 1.6 0
22-11-2019 20.9 (15:30) 16 (00:00) 18.4 7.5 (13:30) 4.44 (13:30) 4.2 0 4.2 0 0
21-11-2019 19.7 (16:00) 15 (00:00) 17.4 4.17 (00:20) 2.5 (00:20) 0 0 0 0 0
20-11-2019 21 (12:00) 13.7 (00:00) 17.3 4.72 (04:00) 3.06 (03:40) 0 0 0 0 0
19-11-2019 18.2 (14:40) 14.6 (00:00) 16.4 8.89 (12:00) 5 (12:00) 2.8 0.2 0.8 1.4 0.4
18-11-2019 19.2 (12:10) 14.1 (00:00) 16.7 5.83 (12:40) 2.78 (12:40) 0 0 0 0 0
17-11-2019 18.1 (12:20) 14.7 (00:00) 16.4 8.89 (11:20) 4.17 (11:20) 0.8 0.2 0.4 0.2 0
16-11-2019 19.2 (13:20) 14.7 (00:00) 17 11.94 (11:20) 6.39 (12:20) 0 0 0 0 0
15-11-2019 18.2 (14:10) 15.4 (00:00) 16.8 9.17 (14:50) 5.28 (07:20) 2.8 0.2 2 0.2 0.4
14-11-2019 19.9 (11:00) 16.3 (00:00) 18.1 9.17 (23:40) 4.17 (23:30) 1 0 0 0.4 0.6
13-11-2019 20.7 (11:40) 16.8 (00:00) 18.8 8.89 (15:30) 4.72 (15:30) 0.2 0 0.2 0 0
12-11-2019 20.4 (12:00) 16.8 (00:00) 18.6 10 (00:30) 5.83 (00:30) 0.8 0 0.4 0.4 0

Gráficas

Temp. máximas Temp. mínimas Temp. medias Precipitaciones Rachas de viento máximas Velocidades máximas media en intervalos de 10 minutos

Datos horarios

Fecha y hora oficial Temperatura (ºC) Velocidad del viento (km/h) Dirección del viento Racha (km/h) Dirección de racha Precipitación (mm) Presión (hPa) Tendencia (hPa) Humedad (%)
2019-12-11 23:00:00 16 6 Noroeste 17 Norte 0 -- -- 78
2019-12-11 22:00:00 15.9 5 Noroeste 14 Norte 0 -- -- 77
2019-12-11 21:00:00 16.1 6 Noroeste 14 Noroeste 0 -- -- 76
2019-12-11 20:00:00 16.3 7 Noroeste 15 Noroeste 0 -- -- 76
2019-12-11 19:00:00 16.5 6 Norte 16 Norte 0 -- -- 78
2019-12-11 18:00:00 16.7 8 Nordeste 21 Nordeste 0 -- -- 77
2019-12-11 17:00:00 17 8 Nordeste 19 Noroeste 0 -- -- 79
2019-12-11 16:00:00 17.3 8 Nordeste 18 Nordeste 0 -- -- 79
2019-12-11 15:00:00 17.5 9 Nordeste 23 Nordeste 0 -- -- 79
2019-12-11 14:00:00 17.5 13 Nordeste 27 Este 0 -- -- 80
2019-12-11 13:00:00 17.8 12 Nordeste 22 Nordeste 0 -- -- 77
2019-12-11 12:00:00 18.2 8 Nordeste 21 Este 0 -- -- 76
2019-12-11 11:00:00 17.6 9 Nordeste 22 Nordeste 0 -- -- 81
2019-12-11 10:00:00 17.6 9 Nordeste 17 Nordeste 0 -- -- 81
2019-12-11 09:00:00 16.8 5 Nordeste 14 Este 0 -- -- 84
2019-12-11 08:00:00 15.1 4 Sur 8 Sur 0 -- -- 87
2019-12-11 07:00:00 15 3 Sur 7 Sudoeste 0 -- -- 86
2019-12-11 06:00:00 15.9 3 Sur 8 Este 0 -- -- 87
2019-12-11 05:00:00 16 3 Nordeste 9 Nordeste 0 -- -- 89
2019-12-11 04:00:00 15.9 0 Calma 7 Nordeste 0 -- -- 87
2019-12-11 03:00:00 16 0 Calma 12 Norte 0 -- -- 88
2019-12-11 02:00:00 16.6 5 Norte 12 Norte 0 -- -- 86
2019-12-11 01:00:00 16.7 6 Norte 19 Norte 0 -- -- 85
2019-12-11 00:00:00 16.8 4 Noroeste 18 Nordeste 0 -- -- 85
2019-12-10 23:00:00 17 4 Norte 11 Nordeste 0 -- -- 88
2019-12-10 22:00:00 16.9 2 Norte 12 Norte 0 -- -- 87
2019-12-10 21:00:00 17 4 Noroeste 15 Norte 0 -- -- 87
2019-12-10 20:00:00 17 6 Norte 16 Nordeste 0 -- -- 86
2019-12-10 19:00:00 17 5 Noroeste 12 Norte 0 -- -- 85
2019-12-10 18:00:00 17.3 6 Norte 16 Norte 0 -- -- 81
2019-12-10 17:00:00 17.8 8 Norte 14 Norte 0 -- -- 79
2019-12-10 16:00:00 18.2 8 Nordeste 18 Nordeste 0 -- -- 76
2019-12-10 15:00:00 18.8 7 Norte 17 Nordeste 0 -- -- 72
2019-12-10 14:00:00 19.2 6 Norte 18 Norte 0 -- -- 72
2019-12-10 13:00:00 18.8 9 Nordeste 14 Este 0 -- -- 72
2019-12-10 12:00:00 18.9 9 Nordeste 18 Nordeste 0 -- -- 71
2019-12-10 11:00:00 17.6 7 Nordeste 14 Nordeste 0 -- -- 73
2019-12-10 10:00:00 17.1 2 Norte 12 Sur 0 -- -- 77
2019-12-10 09:00:00 14.3 9 Sur 15 Sur 0 -- -- 77
2019-12-10 08:00:00 13 9 Sur 14 Sur 0 -- -- 80
2019-12-10 07:00:00 13.2 6 Sur 13 Sur 0 -- -- 80
2019-12-10 06:00:00 13.3 10 Sur 15 Sur 0 -- -- 78
2019-12-10 05:00:00 13.9 7 Sur 12 Sur 0 -- -- 80
2019-12-10 04:00:00 14.5 3 Sudoeste 8 Sudoeste 0 -- -- 85
2019-12-10 03:00:00 14.6 3 Oeste 10 Oeste 0 -- -- 86
2019-12-10 02:00:00 14.4 4 Sudoeste 8 Oeste 0 -- -- 87
2019-12-10 01:00:00 14.5 4 Sudoeste 8 Sudoeste 0 -- -- 85
2019-12-10 00:00:00 14.6 6 Sudoeste 10 Sur 0 -- -- 84
2019-12-09 23:00:00 14.5 7 Sur 11 Sur 0 -- -- 81
2019-12-09 22:00:00 15.4 0 Calma 6 Oeste 0 -- -- 86
2019-12-09 21:00:00 15.8 3 Oeste 10 Noroeste 0 -- -- 85
2019-12-09 20:00:00 16.3 7 Noroeste 14 Noroeste 0 -- -- 84
2019-12-09 19:00:00 16.4 7 Norte 14 Norte 0 -- -- 83
2019-12-09 18:00:00 16.9 5 Norte 14 Nordeste 0 -- -- 80
2019-12-09 17:00:00 17.3 8 Norte 16 Norte 0 -- -- 78
2019-12-09 16:00:00 18.1 8 Nordeste 18 Nordeste 0 -- -- 75
2019-12-09 15:00:00 18.4 8 Nordeste 21 Este 0 -- -- 75
2019-12-09 14:00:00 17.8 9 Nordeste 21 Nordeste 0 -- -- 76
2019-12-09 13:00:00 18 12 Nordeste 20 Nordeste 0 -- -- 77
2019-12-09 12:00:00 18 8 Nordeste 19 Nordeste 0 -- -- 76
2019-12-09 11:00:00 17.4 8 Norte 19 Nordeste 0 -- -- 80
2019-12-09 10:00:00 17.1 6 Nordeste 17 Norte 0 -- -- 79
2019-12-09 09:00:00 16.8 6 Nordeste 17 Nordeste 0 -- -- 80
2019-12-09 08:00:00 16 6 Nordeste 17 Nordeste 0 -- -- 83
2019-12-09 07:00:00 16 7 Nordeste 16 Nordeste 0 -- -- 84
2019-12-09 06:00:00 15.8 5 Nordeste 14 Norte 0 -- -- 83
2019-12-09 05:00:00 15.7 4 Nordeste 13 Nordeste 0 -- -- 82
2019-12-09 04:00:00 15.6 5 Nordeste 15 Nordeste 0 -- -- 80
2019-12-09 03:00:00 15.4 4 Nordeste 14 Nordeste 0 -- -- 82
2019-12-09 02:00:00 15.6 3 Nordeste 15 Nordeste 0 -- -- 84
2019-12-09 01:00:00 15.6 5 Nordeste 14 Nordeste 0 -- -- 83
2019-12-09 00:00:00 15.4 3 Norte 10 Norte 0 -- -- 83
2019-12-08 23:00:00 15.8 5 Norte 17 Norte 0 -- -- 82
2019-12-08 22:00:00 16.1 4 Norte 15 Norte 0 -- -- 81
2019-12-08 21:00:00 16.3 7 Norte 18 Norte 0 -- -- 81
2019-12-08 20:00:00 16.2 6 Norte 17 Norte 0 -- -- 81
2019-12-08 19:00:00 16.1 5 Norte 15 Norte 0 -- -- 79
2019-12-08 18:00:00 16.4 8 Norte 18 Norte 0 -- -- 76
2019-12-08 17:00:00 16.9 7 Norte 24 Nordeste 0 -- -- 73
2019-12-08 16:00:00 17.3 9 Nordeste 26 Nordeste 0 -- -- 75
2019-12-08 15:00:00 17.8 10 Nordeste 25 Nordeste 0 -- -- 76
2019-12-08 14:00:00 18 10 Nordeste 26 Nordeste 0 -- -- 71
2019-12-08 13:00:00 18.3 12 Nordeste 24 Nordeste 0 -- -- 71
2019-12-08 12:00:00 18.2 11 Nordeste 25 Este 0 -- -- 71
2019-12-08 11:00:00 18 10 Norte 25 Nordeste 0 -- -- 73
2019-12-08 10:00:00 17.3 9 Nordeste 19 Nordeste 0 -- -- 74
2019-12-08 09:00:00 15.7 4 Norte 13 Norte 0 -- -- 81
2019-12-08 08:00:00 15.3 4 Norte 12 Norte 0 -- -- 81
2019-12-08 07:00:00 15.3 6 Norte 12 Norte 0 -- -- 82
2019-12-08 06:00:00 15.5 4 Norte 17 Norte 0 -- -- 81
2019-12-08 05:00:00 15.6 6 Norte 18 Norte 0 -- -- 81
2019-12-08 04:00:00 16 6 Norte 23 Norte 0 -- -- 83
2019-12-08 03:00:00 16.1 8 Norte 19 Nordeste 0 -- -- 83
2019-12-08 02:00:00 16.3 10 Norte 24 Norte 0 -- -- 85
2019-12-08 01:00:00 16.4 9 Norte 23 Nordeste 0 -- -- 85
2019-12-08 00:00:00 16.6 9 Nordeste 22 Nordeste 0 -- -- 86
2019-12-07 23:00:00 16.7 12 Nordeste 23 Norte 0 -- -- 85
2019-12-07 22:00:00 16.6 5 Norte 22 Este 0 -- -- 84
2019-12-07 21:00:00 16.7 7 Nordeste 20 Nordeste 0 -- -- 84
2019-12-07 20:00:00 16.7 8 Norte 21 Norte 0 -- -- 84
2019-12-07 19:00:00 16.6 9 Norte 22 Noroeste 0 -- -- 84
2019-12-07 18:00:00 17 9 Norte 25 Noroeste 0 -- -- 83
2019-12-07 17:00:00 17.3 9 Norte 22 Norte 0 -- -- 81
2019-12-07 16:00:00 17.6 11 Nordeste 28 Nordeste 0 -- -- 79
2019-12-07 15:00:00 18 9 Norte 24 Norte 0 -- -- 77
2019-12-07 14:00:00 18.1 10 Norte 23 Norte 0 -- -- 76
2019-12-07 13:00:00 18.7 8 Norte 26 Nordeste 0 -- -- 76
2019-12-07 12:00:00 17.9 10 Norte 25 Norte 0 -- -- 79
2019-12-07 11:00:00 17.4 12 Noroeste 22 Norte 0 -- -- 80
2019-12-07 10:00:00 16.2 8 Noroeste 21 Oeste 0 -- -- 87
2019-12-07 09:00:00 15.5 9 Oeste 28 Noroeste 0 -- -- 87
2019-12-07 08:00:00 15.6 14 Noroeste 26 Noroeste 0 -- -- 89
2019-12-07 07:00:00 14.9 7 Noroeste 16 Noroeste 0 -- -- 87
2019-12-07 06:00:00 14.5 7 Oeste 10 Oeste 0 -- -- 87
2019-12-07 05:00:00 14.6 5 Oeste 13 Noroeste 0 -- -- 85
2019-12-07 04:00:00 15.1 6 Noroeste 14 Noroeste 0 -- -- 81
2019-12-07 03:00:00 15.3 8 Noroeste 16 Noroeste 0 -- -- 82
2019-12-07 02:00:00 15.3 10 Noroeste 18 Noroeste 0 -- -- 81
2019-12-07 01:00:00 14.9 9 Oeste 15 Oeste 0 -- -- 89
2019-12-07 00:00:00 14.9 3 Oeste 13 Noroeste 0 -- -- 89
2019-12-06 23:00:00 14.9 9 Noroeste 20 Noroeste 5 -- -- 92
2019-12-06 22:00:00 16.1 11 Noroeste 24 Noroeste 0 -- -- 82
2019-12-06 21:00:00 16 12 Norte 31 Norte 0 -- -- 78
2019-12-06 20:00:00 15.8 11 Noroeste 28 Norte 0.2 -- -- 85
2019-12-06 19:00:00 16.3 15 Norte 30 Noroeste 0 -- -- 82
2019-12-06 18:00:00 16.6 19 Noroeste 37 Noroeste 0 -- -- 79
2019-12-06 17:00:00 16.4 15 Noroeste 35 Noroeste 0.2 -- -- 85
2019-12-06 16:00:00 16.3 16 Noroeste 41 Oeste 0.6 -- -- 80
2019-12-06 15:00:00 16.8 25 Noroeste 37 Noroeste 0 -- -- 78
2019-12-06 14:00:00 17.8 20 Noroeste 37 Noroeste 0 -- -- 77
2019-12-06 13:00:00 16.6 11 Norte 31 Noroeste 0.2 -- -- 88
2019-12-06 12:00:00 17.5 18 Noroeste 32 Norte 0 -- -- 78
2019-12-06 11:00:00 17.2 15 Norte 32 Norte 0 -- -- 80
2019-12-06 10:00:00 16.5 15 Norte 34 Noroeste 0 -- -- 83
2019-12-06 09:00:00 16.3 12 Noroeste 25 Oeste 0 -- -- 79
2019-12-06 08:00:00 15.5 12 Noroeste 29 Noroeste 0 -- -- 79
2019-12-06 07:00:00 15.3 19 Noroeste 34 Noroeste 0 -- -- 81
2019-12-06 06:00:00 14 15 Noroeste 40 Noroeste 3.8 -- -- 93
2019-12-06 05:00:00 14.6 16 Noroeste 37 Noroeste 0.2 -- -- 88
2019-12-06 04:00:00 14.3 14 Oeste 29 Noroeste 1.4 -- -- 89
2019-12-06 03:00:00 14.7 14 Noroeste 37 Norte 0 -- -- 88
2019-12-06 02:00:00 14.7 18 Noroeste 29 Noroeste 1.4 -- -- 87
2019-12-06 01:00:00 14 17 Noroeste 31 Noroeste 1.8 -- -- 91
2019-12-06 00:00:00 13.6 10 Norte 41 Noroeste 2.2 -- -- 90
2019-12-05 23:00:00 15.2 18 Noroeste 38 Noroeste 0 -- -- 84
2019-12-05 22:00:00 13.5 10 Oeste 30 Noroeste 4.6 -- -- 92
2019-12-05 21:00:00 14.7 18 Noroeste 39 Oeste 0.2 -- -- 86
2019-12-05 20:00:00 15.2 17 Noroeste 38 Noroeste 0 -- -- 77
2019-12-05 19:00:00 15.3 26 Noroeste 45 Noroeste 0.4 -- -- 82
2019-12-05 18:00:00 15.6 24 Noroeste 56 Noroeste 1.4 -- -- 73
2019-12-05 17:00:00 16.2 22 Noroeste 48 Noroeste 0 -- -- 76
2019-12-05 16:00:00 16.6 24 Noroeste 46 Noroeste 0 -- -- 75
2019-12-05 15:00:00 17.5 28 Noroeste 48 Noroeste 0 -- -- 71
2019-12-05 14:00:00 15.2 21 Noroeste 45 Noroeste 0.2 -- -- 88
2019-12-05 13:00:00 14.5 23 Noroeste 59 Noroeste 0.6 -- -- 83
2019-12-05 12:00:00 15.3 20 Noroeste 54 Noroeste 1.4 -- -- 86
2019-12-05 11:00:00 16.2 27 Noroeste 48 Noroeste 0 -- -- 80
2019-12-05 10:00:00 16.6 28 Noroeste 45 Oeste 0 -- -- 69
2019-12-05 09:00:00 15.9 18 Noroeste 42 Oeste 0 -- -- 73
2019-12-05 08:00:00 15.5 17 Noroeste 37 Noroeste 0 -- -- 74
2019-12-05 07:00:00 15.4 18 Noroeste 42 Noroeste 0 -- -- 72
2019-12-05 06:00:00 15.6 21 Noroeste 62 Noroeste 0 -- -- 73
2019-12-05 05:00:00 15.4 24 Noroeste 44 Noroeste 0.2 -- -- 77
2019-12-05 04:00:00 14 19 Noroeste 43 Noroeste 8 -- -- 94
2019-12-05 03:00:00 14.5 17 Noroeste 36 Oeste 8.8 -- -- 97
2019-12-05 02:00:00 15.1 17 Noroeste 33 Oeste 3.4 -- -- 96
2019-12-05 01:00:00 15.4 13 Noroeste 35 Oeste 2.6 -- -- 94
2019-12-05 00:00:00 17.5 13 Oeste 33 Oeste 0 -- -- 70
2019-12-04 23:00:00 17.3 17 Oeste 36 Oeste 0 -- -- 72
2019-12-04 22:00:00 16.8 14 Oeste 37 Noroeste 0 -- -- 76
2019-12-04 21:00:00 17 19 Noroeste 40 Oeste 0 -- -- 74
2019-12-04 20:00:00 17.3 18 Noroeste 37 Noroeste 0 -- -- 74
2019-12-04 19:00:00 17 13 Oeste 33 Noroeste 0 -- -- 74
2019-12-04 18:00:00 17.4 17 Noroeste 37 Noroeste 0 -- -- 76
2019-12-04 17:00:00 17.7 21 Noroeste 46 Noroeste 0 -- -- 74
2019-12-04 16:00:00 18.8 19 Noroeste 31 Noroeste 0 -- -- 69
2019-12-04 15:00:00 19.7 17 Noroeste 30 Oeste 0 -- -- 53
2019-12-04 14:00:00 19.2 17 Noroeste 31 Noroeste 0 -- -- 59
2019-12-04 13:00:00 17.6 16 Noroeste 40 Oeste 0 -- -- 75
2019-12-04 12:00:00 19.1 14 Noroeste 24 Noroeste 0 -- -- 64
2019-12-04 11:00:00 17.7 15 Noroeste 24 Noroeste 0 -- -- 70
2019-12-04 10:00:00 17.7 12 Noroeste 22 Oeste 0 -- -- 65
2019-12-04 09:00:00 16.5 8 Oeste 16 Oeste 0 -- -- 74
2019-12-04 08:00:00 15.3 9 Oeste 21 Oeste 0 -- -- 76
2019-12-04 07:00:00 14.8 8 Sudoeste 24 Sudoeste 0 -- -- 80
2019-12-04 06:00:00 15.1 9 Oeste 21 Noroeste 0.2 -- -- 84
2019-12-04 05:00:00 15.2 6 Oeste 13 Sudoeste 0 -- -- 78
2019-12-04 04:00:00 15.1 4 Oeste 13 Oeste 0 -- -- 77
2019-12-04 03:00:00 15 5 Oeste 12 Oeste 0 -- -- 78
2019-12-04 02:00:00 15.3 5 Oeste 9 Oeste 0 -- -- 76
2019-12-04 01:00:00 15.8 4 Oeste 19 Noroeste 0 -- -- 73
2019-12-04 00:00:00 16.2 10 Noroeste 25 Noroeste 0 -- -- 70
2019-12-03 23:00:00 16.5 13 Noroeste 21 Noroeste 0 -- -- 71
2019-12-03 22:00:00 16.4 13 Noroeste 22 Noroeste 0 -- -- 69
2019-12-03 21:00:00 15.7 9 Oeste 15 Oeste 0 -- -- 71
2019-12-03 20:00:00 15.9 6 Oeste 20 Noroeste 0 -- -- 71
2019-12-03 19:00:00 16.5 9 Noroeste 21 Noroeste 0 -- -- 68
2019-12-03 18:00:00 16.9 12 Noroeste 23 Oeste 0 -- -- 63
2019-12-03 17:00:00 17.8 11 Noroeste 28 Noroeste 0 -- -- 63
2019-12-03 16:00:00 17.6 15 Noroeste 28 Noroeste 0 -- -- 69
2019-12-03 15:00:00 18.1 16 Noroeste 32 Noroeste 0 -- -- 67
2019-12-03 14:00:00 18.3 18 Noroeste 32 Noroeste 0 -- -- 63
2019-12-03 13:00:00 18.2 14 Noroeste 30 Noroeste 0 -- -- 68
2019-12-03 12:00:00 17.7 15 Noroeste 35 Noroeste 0 -- -- 71
2019-12-03 11:00:00 18 24 Noroeste 40 Noroeste 0 -- -- 62
2019-12-03 10:00:00 17.5 24 Noroeste 41 Noroeste 0 -- -- 66
2019-12-03 09:00:00 16.7 18 Noroeste 37 Noroeste 0 -- -- 72
2019-12-03 08:00:00 16.6 21 Noroeste 34 Noroeste 0 -- -- 69
2019-12-03 07:00:00 16.4 18 Noroeste 36 Noroeste 0 -- -- 75
2019-12-03 06:00:00 15.7 19 Noroeste 42 Noroeste 0 -- -- 76
2019-12-03 05:00:00 16.2 14 Noroeste 31 Noroeste 0 -- -- 77
2019-12-03 04:00:00 15.4 12 Noroeste 37 Noroeste 0.2 -- -- 85
2019-12-03 03:00:00 16 14 Noroeste 27 Noroeste 0 -- -- 81
2019-12-03 02:00:00 16 16 Noroeste 33 Noroeste 0 -- -- 76
2019-12-03 01:00:00 15.4 14 Oeste 29 Oeste 0 -- -- 87
2019-12-03 00:00:00 15.2 13 Noroeste 27 Norte 1.4 -- -- 90
2019-12-02 23:00:00 15.8 13 Noroeste 35 Noroeste 0 -- -- 86
2019-12-02 22:00:00 15.7 19 Noroeste 39 Norte 0 -- -- 87
2019-12-02 21:00:00 15.6 14 Noroeste 39 Noroeste 0 -- -- 88
2019-12-02 20:00:00 16 14 Noroeste 34 Noroeste 0 -- -- 84
2019-12-02 19:00:00 15.9 16 Noroeste 33 Noroeste 0.6 -- -- 90
2019-12-02 18:00:00 17.2 16 Noroeste 36 Noroeste 0 -- -- 78
2019-12-02 17:00:00 17.2 16 Noroeste 32 Oeste 0 -- -- 79
2019-12-02 16:00:00 18.2 17 Noroeste 33 Oeste 0 -- -- 73
2019-12-02 15:00:00 18.9 17 Oeste 35 Noroeste 0 -- -- 67
2019-12-02 14:00:00 18.4 20 Noroeste 35 Noroeste 0 -- -- 70
2019-12-02 13:00:00 18.6 16 Noroeste 35 Noroeste 0 -- -- 72
2019-12-02 12:00:00 17.7 15 Noroeste 30 Oeste 0.2 -- -- 83
2019-12-02 11:00:00 17.2 14 Oeste 24 Oeste 0 -- -- 89
2019-12-02 10:00:00 16.4 13 Noroeste 27 Noroeste 0.6 -- -- 93
2019-12-02 09:00:00 16.4 14 Noroeste 26 Noroeste 0 -- -- 89
2019-12-02 08:00:00 16.8 9 Noroeste 19 Oeste 0 -- -- 85
2019-12-02 07:00:00 16.6 11 Noroeste 22 Oeste 0 -- -- 86
2019-12-02 06:00:00 16.7 10 Noroeste 23 Noroeste 0 -- -- 83
2019-12-02 05:00:00 17 11 Noroeste 23 Noroeste 0 -- -- 84
2019-12-02 04:00:00 16.6 10 Noroeste 19 Oeste 0.2 -- -- 87
2019-12-02 03:00:00 16.8 8 Oeste 21 Oeste 0 -- -- 78
2019-12-02 02:00:00 16.2 10 Oeste 23 Sudoeste 0 -- -- 80
2019-12-02 01:00:00 16.1 8 Oeste 16 Oeste 0 -- -- 84
2019-12-02 00:00:00 15.8 7 Oeste 12 Oeste 0 -- -- 84
2019-12-01 23:00:00 15.6 5 Sudoeste 9 Sudoeste 0 -- -- 84
2019-12-01 22:00:00 15.7 4 Sudoeste 8 Sudoeste 0 -- -- 80
2019-12-01 21:00:00 16.6 3 Sur 6 Sudoeste 0 -- -- 80
2019-12-01 20:00:00 17.5 3 Norte 9 Noroeste 0 -- -- 77
2019-12-01 19:00:00 17.7 4 Noroeste 12 Noroeste 0 -- -- 78
2019-12-01 18:00:00 17.8 6 Noroeste 19 Norte 0 -- -- 76
2019-12-01 17:00:00 18.2 7 Norte 19 Nordeste 0 -- -- 76
2019-12-01 16:00:00 19.2 7 Norte 17 Norte 0 -- -- 75
2019-12-01 15:00:00 19.7 10 Norte 19 Noroeste 0 -- -- 74
2019-12-01 14:00:00 19.4 6 Norte 14 Norte 0 -- -- 75
2019-12-01 13:00:00 19 8 Nordeste 15 Noroeste 0 -- -- 74
2019-12-01 12:00:00 18.7 5 Norte 16 Norte 0 -- -- 78
2019-12-01 11:00:00 18.7 6 Norte 13 Norte 0 -- -- 77
2019-12-01 10:00:00 18 6 Norte 13 Norte 0 -- -- 79
2019-12-01 09:00:00 17.4 5 Noroeste 13 Noroeste 0 -- -- 82
2019-12-01 08:00:00 16.7 3 Sudoeste 8 Oeste 0 -- -- 86
2019-12-01 07:00:00 16.4 4 Oeste 9 Sudoeste 0 -- -- 86
2019-12-01 06:00:00 16.4 4 Oeste 9 Oeste 0 -- -- 87
2019-12-01 05:00:00 16.4 5 Sudoeste 9 Oeste 0 -- -- 87
2019-12-01 04:00:00 17 3 Oeste 11 Noroeste 0 -- -- 87
2019-12-01 03:00:00 17.5 4 Noroeste 9 Noroeste 0 -- -- 87
2019-12-01 02:00:00 17.7 6 Norte 12 Noroeste 0 -- -- 88
2019-12-01 01:00:00 17.8 6 Noroeste 12 Noroeste 0 -- -- 90
2019-12-01 00:00:00 18 8 Noroeste 15 Noroeste 0 -- -- 92
2019-11-30 23:00:00 17.1 5 Oeste 9 Oeste 0 -- -- 89
2019-11-30 22:00:00 17.1 5 Oeste 10 Oeste 0 -- -- 91
2019-11-30 21:00:00 17.3 4 Oeste 8 Oeste 0 -- -- 91
2019-11-30 20:00:00 17.8 3 Oeste 4 Sudoeste 0 -- -- 90
2019-11-30 19:00:00 18.6 3 Nordeste 8 Este 0 -- -- 90
2019-11-30 18:00:00 19.1 4 Nordeste 12 Nordeste 0 -- -- 88
2019-11-30 17:00:00 20.3 8 Nordeste 15 Este 0 -- -- 83
2019-11-30 16:00:00 21.2 8 Nordeste 15 Nordeste 0 -- -- 77
2019-11-30 15:00:00 22 7 Nordeste 15 Nordeste 0 -- -- 66
2019-11-30 14:00:00 22.5 9 Nordeste 20 Este 0 -- -- 66
2019-11-30 13:00:00 23.9 13 Este 24 Este 0 -- -- 48
2019-11-30 12:00:00 23.8 13 Este 23 Este 0 -- -- 50
2019-11-30 11:00:00 23.7 12 Este 20 Este 0 -- -- 48
2019-11-30 10:00:00 22.6 8 Sudeste 13 Sudeste 0 -- -- 56
2019-11-30 09:00:00 19.4 4 Este 8 Este 0 -- -- 76
2019-11-30 08:00:00 17 0 Calma 10 Sur 0 -- -- 69
2019-11-30 07:00:00 17.8 5 Sur 10 Sur 0 -- -- 41
2019-11-30 06:00:00 15.9 5 Sur 9 Oeste 0 -- -- 65
2019-11-30 05:00:00 16.5 0 Calma 7 Este 0 -- -- 83
2019-11-30 04:00:00 16.7 3 Sudeste 9 Sur 0 -- -- 58
2019-11-30 03:00:00 17.2 6 Sur 9 Sur 0 -- -- 55
2019-11-30 02:00:00 18.1 5 Sur 17 Sur 0 -- -- 42
2019-11-30 01:00:00 18 9 Sur 14 Sur 0 -- -- 46
2019-11-30 00:00:00 17.5 6 Sur 13 Sur 0 -- -- 58
2019-11-29 23:00:00 17.7 8 Sur 14 Sudoeste 0 -- -- 64
2019-11-29 22:00:00 17.1 3 Sudoeste 6 Sur 0 -- -- 81
2019-11-29 21:00:00 17.5 0 Calma 6 Sudoeste 0 -- -- 84
2019-11-29 20:00:00 18.1 3 Sudoeste 6 Oeste 0 -- -- 82
2019-11-29 19:00:00 18.8 2 Noroeste 10 Este 0 -- -- 80
2019-11-29 18:00:00 20.3 6 Este 14 Este 0 -- -- 68
2019-11-29 17:00:00 21.7 9 Este 18 Este 0 -- -- 60
2019-11-29 16:00:00 22.7 10 Este 22 Este 0 -- -- 53
2019-11-29 15:00:00 23.5 11 Este 25 Sudeste 0 -- -- 49
2019-11-29 14:00:00 23.7 12 Este 23 Este 0 -- -- 44
2019-11-29 13:00:00 23.7 13 Este 23 Este 0 -- -- 44
2019-11-29 12:00:00 23.4 11 Sudeste 22 Sudeste 0 -- -- 48
2019-11-29 11:00:00 21.6 9 Este 16 Este 0 -- -- 76
2019-11-29 10:00:00 20.2 8 Este 13 Nordeste 0 -- -- 83
2019-11-29 09:00:00 18.4 6 Este 9 Este 0 -- -- 92
2019-11-29 08:00:00 15.5 4 Sudeste 8 Sur 0 -- -- 92
2019-11-29 07:00:00 15 3 Sur 10 Sur 0 -- -- 85
2019-11-29 06:00:00 15.4 3 Sudeste 10 Sur 0 -- -- 92
2019-11-29 05:00:00 15.5 5 Sur 9 Sur 0 -- -- 88
2019-11-29 04:00:00 15.3 4 Sudoeste 6 Sur 0 -- -- 90
2019-11-29 03:00:00 15.5 2 Sudoeste 8 Sudoeste 0 -- -- 87
2019-11-29 02:00:00 15.9 5 Sudoeste 11 Sudoeste 0 -- -- 80
2019-11-29 01:00:00 15.9 4 Sudoeste 7 Sudoeste 0 -- -- 78
2019-11-29 00:00:00 16.2 2 Sudoeste 14 Sur 0 -- -- 75
2019-11-28 23:00:00 16.5 3 Sudoeste 9 Sudoeste 0 -- -- 82
2019-11-28 22:00:00 16.9 6 Sudoeste 9 Sudoeste 0 -- -- 88
2019-11-28 21:00:00 17.5 2 Oeste 8 Noroeste 0 -- -- 88
2019-11-28 20:00:00 17.9 4 Noroeste 9 Noroeste 0 -- -- 90
2019-11-28 19:00:00 17.9 0 Calma 9 Nordeste 0 -- -- 88
2019-11-28 18:00:00 18 5 Nordeste 10 Nordeste 0 -- -- 88
2019-11-28 17:00:00 18.5 4 Nordeste -- -- 0 -- -- 85
2019-11-28 16:00:00 18.7 5 Nordeste 10 Nordeste 0 -- -- 82
2019-11-28 15:00:00 19.2 6 Nordeste 14 Nordeste 0 -- -- 80
2019-11-28 14:00:00 19.6 6 Nordeste 14 Nordeste 0 -- -- 76
2019-11-28 13:00:00 19.3 5 Este 12 Nordeste 0 -- -- 78
2019-11-28 12:00:00 20.4 9 Nordeste 14 Este 0 -- -- 72
2019-11-28 11:00:00 19.1 4 Nordeste 10 Nordeste 0 -- -- 77
2019-11-28 10:00:00 18.1 0 Calma 8 Oeste 0 -- -- 82
2019-11-28 09:00:00 17 0 Calma 9 Sur 0 -- -- 83
2019-11-28 08:00:00 16.1 5 Sur 9 Sur 0 -- -- 84
2019-11-28 07:00:00 16.3 6 Sur 11 Sudoeste 0 -- -- 84
2019-11-28 06:00:00 16.5 2 Sudeste 6 Sur 0 -- -- 85
2019-11-28 05:00:00 16.2 4 Sur 6 Sudoeste 0 -- -- 85
2019-11-28 04:00:00 16.2 3 Oeste 7 Sudoeste 0 -- -- 87
2019-11-28 03:00:00 17 2 Oeste 7 Noroeste 0 -- -- 86
2019-11-28 02:00:00 17.2 4 Noroeste 8 Noroeste 0 -- -- 86
2019-11-28 01:00:00 17.2 4 Noroeste 10 Noroeste 0 -- -- 87
2019-11-28 00:00:00 17.3 5 Noroeste 15 Norte 0 -- -- 86
2019-11-27 23:00:00 17.4 6 Noroeste 13 Norte 0 -- -- 86
2019-11-27 22:00:00 17.4 7 Noroeste 13 Noroeste 0 -- -- 85
2019-11-27 21:00:00 17.4 5 Noroeste 21 Noroeste 0 -- -- 84
2019-11-27 20:00:00 17.6 7 Noroeste 14 Norte 0 -- -- 85
2019-11-27 19:00:00 17.6 8 Noroeste 15 Noroeste 0 -- -- 83
2019-11-27 18:00:00 17.5 9 Noroeste 16 Noroeste 0 -- -- 82
2019-11-27 17:00:00 18.7 10 Noroeste 17 Noroeste 0 -- -- 78
2019-11-27 16:00:00 19.9 10 Noroeste 19 Norte 0 -- -- 73
2019-11-27 15:00:00 19.5 6 Norte 16 Norte 0 -- -- 75
2019-11-27 14:00:00 19.9 7 Norte 17 Nordeste 0 -- -- 75
2019-11-27 13:00:00 20 8 Norte 17 Norte 0 -- -- 74
2019-11-27 05:00:00 17.3 6 Noroeste 13 Noroeste 0 -- -- 86
2019-11-27 04:00:00 17.3 6 Noroeste 11 Oeste 0 -- -- 86
2019-11-27 03:00:00 17.3 6 Noroeste 16 Oeste 0 -- -- 84
2019-11-27 02:00:00 17.2 5 Noroeste 11 Noroeste 0 -- -- 85
2019-11-27 01:00:00 17.2 6 Noroeste 14 Noroeste 0 -- -- 85
2019-11-27 00:00:00 17.2 5 Noroeste 11 Noroeste 0 -- -- 86
2019-11-26 23:00:00 17 5 Noroeste 11 Noroeste 0 -- -- 86
2019-11-26 22:00:00 17.3 6 Noroeste 14 Noroeste 0 -- -- 86
2019-11-26 21:00:00 17.5 9 Noroeste 18 Noroeste 0 -- -- 84
2019-11-26 20:00:00 17.3 8 Noroeste 17 Norte 0 -- -- 84
2019-11-26 19:00:00 17.6 10 Norte 20 Noroeste 0 -- -- 82
2019-11-26 18:00:00 17.8 13 Noroeste 22 Noroeste 0 -- -- 83
2019-11-26 17:00:00 18.2 13 Noroeste 24 Noroeste 0 -- -- 82
2019-11-26 16:00:00 18.4 14 Noroeste 24 Noroeste 0 -- -- 79
2019-11-26 15:00:00 19.3 13 Noroeste 24 Noroeste 0 -- -- 77
2019-11-26 14:00:00 20.4 10 Norte 20 Noroeste 0 -- -- 72
2019-11-26 13:00:00 20 7 Nordeste 15 Noroeste 0 -- -- 71
2019-11-26 12:00:00 19 9 Noroeste 15 Noroeste 0 -- -- 77
2019-11-26 11:00:00 18.8 6 Nordeste 13 Nordeste 0 -- -- 78
2019-11-26 10:00:00 18.1 4 Norte 12 Norte 0 -- -- 80
2019-11-26 09:00:00 17.6 6 Norte 11 Noroeste 0 -- -- 80
2019-11-26 08:00:00 16.8 2 Noroeste 6 Noroeste 0 -- -- 84
2019-11-26 07:00:00 16.9 2 Norte 8 Norte 0 -- -- 83
2019-11-26 06:00:00 16.9 4 Norte 9 Norte 0 -- -- 85
2019-11-26 05:00:00 16.9 4 Norte 11 Norte 0 -- -- 83
2019-11-26 04:00:00 17.1 7 Noroeste 12 Norte 0 -- -- 82
2019-11-26 03:00:00 17.1 3 Noroeste 11 Norte 0 -- -- 82
2019-11-26 02:00:00 17.2 5 Noroeste 11 Norte 0 -- -- 82
2019-11-26 01:00:00 17.2 7 Norte 16 Norte 0 -- -- 80
2019-11-26 00:00:00 17.3 4 Noroeste 12 Noroeste 0 -- -- 83
2019-11-25 23:00:00 17.4 5 Noroeste 13 Norte 0 -- -- 82
2019-11-25 22:00:00 17.4 6 Norte 14 Noroeste 0 -- -- 82
2019-11-25 21:00:00 17.5 4 Norte 13 Nordeste 0 -- -- 83
2019-11-25 20:00:00 17.5 4 Norte 14 Nordeste 0 -- -- 80
2019-11-25 19:00:00 17.5 7 Norte 16 Norte 0 -- -- 83
2019-11-25 18:00:00 17.6 11 Noroeste 18 Noroeste 0 -- -- 81
2019-11-25 17:00:00 18.1 11 Noroeste 18 Noroeste 0 -- -- 76
2019-11-25 16:00:00 18.8 10 Noroeste 19 Norte 0 -- -- 74
2019-11-25 15:00:00 18.9 10 Norte 16 Noroeste 0 -- -- 73
2019-11-25 14:00:00 18.9 7 Norte 17 Nordeste 0 -- -- 74
2019-11-25 13:00:00 19.2 6 Norte 18 Nordeste 0 -- -- 72
2019-11-25 12:00:00 18.9 8 Nordeste 18 Nordeste 0 -- -- 71
2019-11-25 11:00:00 18.4 7 Nordeste 21 Nordeste 0 -- -- 77
2019-11-25 10:00:00 18.3 0 Calma 6 Oeste 0 -- -- 77
2019-11-25 09:00:00 16.6 6 Sudoeste 13 Sudoeste 0 -- -- 78
2019-11-25 08:00:00 16 6 Sudoeste 9 Sudoeste 0 -- -- 79
2019-11-25 07:00:00 15.4 4 Sudoeste 9 Oeste 0 -- -- 82
2019-11-25 06:00:00 15.7 3 Sudoeste 10 Sudoeste 0 -- -- 80
2019-11-25 05:00:00 15.8 5 Sudoeste 10 Oeste 0 -- -- 79
2019-11-25 04:00:00 15.8 5 Sudoeste 8 Oeste 0 -- -- 77
2019-11-25 03:00:00 16.5 4 Noroeste 12 Noroeste 0 -- -- 73
2019-11-25 02:00:00 17 6 Norte 15 Norte 0 -- -- 71
2019-11-25 01:00:00 17 4 Noroeste 9 Noroeste 0 -- -- 75
2019-11-25 00:00:00 17.2 4 Noroeste 11 Noroeste 0 -- -- 73
2019-11-24 23:00:00 17.3 7 Norte 17 Norte 0 -- -- 74
2019-11-24 22:00:00 17.5 6 Norte 16 Noroeste 0 -- -- 75
2019-11-24 21:00:00 17.4 5 Noroeste 16 Norte 0 -- -- 73
2019-11-24 20:00:00 17.4 9 Norte 18 Norte 0 -- -- 74
2019-11-24 19:00:00 17.5 8 Noroeste 22 Noroeste 0 -- -- 82
2019-11-24 18:00:00 17.8 10 Noroeste 18 Noroeste 0 -- -- 81
2019-11-24 17:00:00 18.2 9 Noroeste 26 Noroeste 0 -- -- 78
2019-11-24 16:00:00 18.5 14 Noroeste 24 Noroeste 0 -- -- 79
2019-11-24 15:00:00 19.6 12 Norte 25 Norte 0 -- -- 79
2019-11-24 14:00:00 19.9 13 Noroeste 24 Noroeste 0 -- -- 75
2019-11-24 13:00:00 19 10 Noroeste 25 Norte 0 -- -- 76
2019-11-24 12:00:00 19.7 10 Noroeste 21 Norte 0 -- -- 84
2019-11-24 11:00:00 18.5 11 Noroeste 18 Noroeste 0 -- -- 86
2019-11-24 10:00:00 18.2 10 Noroeste 19 Noroeste 0 -- -- 85
2019-11-24 09:00:00 17.5 9 Norte 16 Noroeste 0 -- -- 92
2019-11-24 08:00:00 16.9 5 Oeste 15 Noroeste 0 -- -- 95
2019-11-24 07:00:00 16.9 7 Noroeste 22 Oeste 0.4 -- -- 94
2019-11-24 06:00:00 17.2 7 Noroeste 17 Oeste 0 -- -- 91
2019-11-24 05:00:00 17.4 7 Oeste 15 Oeste 0 -- -- 91
2019-11-24 04:00:00 17.2 6 Oeste 15 Oeste 0 -- -- 93
2019-11-24 03:00:00 17.2 8 Noroeste 17 Noroeste 0 -- -- 93
2019-11-24 02:00:00 17.6 7 Noroeste 17 Oeste 0 -- -- 92
2019-11-24 01:00:00 17.7 10 Noroeste 19 Noroeste 0 -- -- 92
2019-11-24 00:00:00 17.8 10 Noroeste 22 Oeste 0 -- -- 91
2019-11-23 23:00:00 17.8 9 Noroeste 25 Oeste 0 -- -- 90
2019-11-23 22:00:00 18 10 Noroeste 22 Oeste 0 -- -- 88
2019-11-23 21:00:00 17.7 9 Oeste 19 Oeste 0 -- -- 88
2019-11-23 20:00:00 17.8 8 Oeste 22 Noroeste 0 -- -- 94
2019-11-23 19:00:00 18.2 10 Noroeste 21 Noroeste 0 -- -- 94
2019-11-23 18:00:00 18.6 12 Noroeste 22 Noroeste 0 -- -- 94
2019-11-23 17:00:00 18.7 11 Noroeste 27 Noroeste 0 -- -- 94
2019-11-23 16:00:00 18.7 16 Noroeste 36 Noroeste 1.6 -- -- 95
2019-11-23 15:00:00 20.2 16 Noroeste 29 Oeste 0 -- -- 79
2019-11-23 14:00:00 20.3 17 Noroeste 33 Noroeste 0 -- -- 81
2019-11-23 13:00:00 20.1 17 Noroeste 31 Noroeste 0 -- -- 86
2019-11-23 12:00:00 20.5 19 Noroeste 36 Oeste 0 -- -- 79
2019-11-23 11:00:00 20.4 19 Noroeste 36 Noroeste 0 -- -- 78
2019-11-23 10:00:00 19.7 16 Noroeste 33 Noroeste 0 -- -- 87
2019-11-23 09:00:00 18.7 17 Noroeste 31 Oeste 0 -- -- 94
2019-11-23 08:00:00 18 14 Oeste 29 Noroeste 0.8 -- -- 96
2019-11-23 07:00:00 18.3 11 Noroeste 26 Oeste 0.4 -- -- 94
2019-11-23 06:00:00 18.4 12 Noroeste 27 Noroeste 0 -- -- 92
2019-11-23 05:00:00 18.9 12 Oeste 29 Noroeste 0 -- -- 85
2019-11-23 04:00:00 18.5 12 Noroeste 22 Noroeste 0 -- -- 86
2019-11-23 03:00:00 18.3 9 Oeste 19 Oeste 0 -- -- 86
2019-11-23 02:00:00 18.2 12 Oeste 22 Oeste 0 -- -- 85
2019-11-23 01:00:00 18.4 10 Noroeste 19 Noroeste 0 -- -- 84
2019-11-23 00:00:00 17.4 4 Noroeste 10 Oeste 0 -- -- 85
2019-11-22 23:00:00 17.2 4 Oeste 10 Oeste 0 -- -- 89
2019-11-22 22:00:00 17.3 3 Sudoeste 8 Oeste 0 -- -- 86
2019-11-22 21:00:00 17.7 3 Oeste 13 Oeste 0 -- -- 81
2019-11-22 20:00:00 18.1 6 Noroeste 12 Noroeste 0 -- -- 80
2019-11-22 19:00:00 18.4 6 Oeste 21 Oeste 0 -- -- 79
2019-11-22 18:00:00 18.8 12 Noroeste 23 Noroeste 0 -- -- 79
2019-11-22 17:00:00 20 13 Noroeste 22 Noroeste 0 -- -- 78
2019-11-22 16:00:00 20.5 12 Noroeste 24 Noroeste 0 -- -- 77
2019-11-22 15:00:00 20.5 13 Noroeste 27 Noroeste 0 -- -- 75
2019-11-22 14:00:00 19.9 14 Noroeste 27 Noroeste 0 -- -- 78
2019-11-22 13:00:00 20 14 Noroeste 24 Oeste 0 -- -- 80
2019-11-22 12:00:00 19 13 Noroeste 24 Oeste 0 -- -- 85
2019-11-22 11:00:00 18.7 9 Noroeste 18 Oeste 0.2 -- -- 95
2019-11-22 10:00:00 18.2 10 Noroeste 21 Noroeste 0.2 -- -- 96
2019-11-22 09:00:00 17.4 10 Noroeste 24 Noroeste 1.6 -- -- 97
2019-11-22 08:00:00 17.4 9 Noroeste 17 Noroeste 2.2 -- -- 96
2019-11-22 07:00:00 17.3 7 Noroeste 16 Oeste 0 -- -- 95
2019-11-22 06:00:00 16.6 6 Oeste 12 Oeste 0 -- -- 91
2019-11-22 05:00:00 16 3 Sudoeste 8 Oeste 0 -- -- 85
2019-11-22 04:00:00 16.1 5 Sudoeste 10 Sur 0 -- -- 85
2019-11-22 03:00:00 16.2 7 Sur 11 Sur 0 -- -- 84
2019-11-22 02:00:00 16.4 8 Sur 13 Sur 0 -- -- 84
2019-11-22 01:00:00 16.1 8 Sur 12 Sur 0 -- -- 87
2019-11-22 00:00:00 16.2 2 Sudoeste 6 Sur 0 -- -- 88
2019-11-21 23:00:00 16 4 Sur 6 Sudeste 0 -- -- 90
2019-11-21 22:00:00 15.9 4 Sudoeste 6 Sudoeste 0 -- -- 89
2019-11-21 21:00:00 16.1 2 Sur 6 Sur 0 -- -- 88
2019-11-21 20:00:00 16.5 3 Sudeste 5 Sur 0 -- -- 87
2019-11-21 19:00:00 17.2 0 Calma 8 Sudeste 0 -- -- 84
2019-11-21 18:00:00 18 4 Sudeste 8 Sudeste 0 -- -- 82
2019-11-21 17:00:00 18.8 4 Este 12 Nordeste 0 -- -- 78
2019-11-21 16:00:00 19.7 5 Este 12 Este 0 -- -- 75
2019-11-21 15:00:00 19.2 5 Sudeste 12 Sudeste 0 -- -- 76
2019-11-21 14:00:00 19 5 Este 12 Nordeste 0 -- -- 78
2019-11-21 13:00:00 19.1 4 Nordeste 11 Nordeste 0 -- -- 78
2019-11-21 12:00:00 19.1 5 Nordeste 10 Este 0 -- -- 77
2019-11-21 11:00:00 19.4 5 Norte 11 Noroeste 0 -- -- 78
2019-11-21 10:00:00 18.1 4 Noroeste 7 Noroeste 0 -- -- 85
2019-11-21 09:00:00 17.7 2 Oeste 12 Sudoeste 0 -- -- 82
2019-11-21 08:00:00 15.9 5 Sudoeste 10 Sur 0 -- -- 84
2019-11-21 07:00:00 -- -- -- -- -- -- -- -- --
2019-11-21 06:00:00 -- -- -- -- -- -- -- -- --
2019-11-21 05:00:00 -- -- -- -- -- -- -- -- --
2019-11-21 04:00:00 -- -- -- -- -- -- -- -- --
2019-11-21 03:00:00 -- -- -- -- -- -- -- -- --
2019-11-21 02:00:00 -- -- -- -- -- -- -- -- --
2019-11-21 01:00:00 -- -- -- -- -- -- -- -- --
2019-11-21 00:00:00 -- -- -- -- -- -- -- -- --
2019-11-20 23:00:00 -- -- -- -- -- -- -- -- --
2019-11-20 22:00:00 -- -- -- -- -- -- -- -- --
2019-11-20 21:00:00 -- -- -- -- -- -- -- -- --
2019-11-20 20:00:00 17.4 7 Sur 12 Sur 0 -- -- 79
2019-11-20 19:00:00 18.4 3 Oeste 6 Oeste 0 -- -- 79
2019-11-20 18:00:00 18.7 5 Sudeste 10 Este 0 -- -- 77
2019-11-20 17:00:00 19.5 6 Este 13 Nordeste 0 -- -- 72
2019-11-20 16:00:00 20.4 8 Este 13 Nordeste 0 -- -- 67
2019-11-20 15:00:00 20.8 8 Este 14 Este 0 -- -- 68
2019-11-20 14:00:00 20.5 5 Norte 16 Norte 0 -- -- 68
2019-11-20 13:00:00 20.8 6 Nordeste 15 Norte 0 -- -- 65
2019-11-20 12:00:00 21 6 Nordeste 13 Este 0 -- -- 62
2019-11-20 11:00:00 20.7 5 Norte 10 Norte 0 -- -- 60
2019-11-20 10:00:00 19.4 4 Sudoeste 10 Sudeste 0 -- -- 63
2019-11-20 09:00:00 17.2 4 Sur 14 Sur 0 -- -- 71
2019-11-20 08:00:00 14 7 Sur 12 Sur 0 -- -- 79
2019-11-20 07:00:00 14.1 7 Sur 10 Sur 0 -- -- 79
2019-11-20 06:00:00 14.1 7 Sur 10 Sur 0 -- -- 78
2019-11-20 05:00:00 13.8 6 Sur 13 Sur 0 -- -- 77
2019-11-20 04:00:00 13.7 10 Sur 17 Sudoeste 0 -- -- 78
2019-11-20 03:00:00 14.1 7 Sudoeste 12 Sudoeste 0 -- -- 81
2019-11-20 02:00:00 14.2 6 Sur 10 Sur 0 -- -- 83
2019-11-20 01:00:00 15.1 2 Sudoeste 13 Oeste 0 -- -- 85
2019-11-20 00:00:00 15.7 8 Sudoeste 17 Oeste 0 -- -- 83
2019-11-19 23:00:00 15.7 7 Oeste 19 Oeste 0 -- -- 86
2019-11-19 22:00:00 16 8 Oeste 19 Oeste 0 -- -- 89
2019-11-19 21:00:00 16.1 7 Oeste 14 Oeste 0 -- -- 90
2019-11-19 20:00:00 16.3 6 Oeste 15 Oeste 0 -- -- 90
2019-11-19 19:00:00 16.7 5 Oeste 15 Oeste 0.4 -- -- 91
2019-11-19 18:00:00 17.1 6 Noroeste 15 Noroeste 0 -- -- 90
2019-11-19 17:00:00 17.1 7 Noroeste 23 Noroeste 0 -- -- 89
2019-11-19 16:00:00 18.1 12 Noroeste 25 Noroeste 0 -- -- 83
2019-11-19 15:00:00 17.8 14 Noroeste 27 Noroeste 0 -- -- 85
2019-11-19 14:00:00 17.9 13 Noroeste 25 Noroeste 0.2 -- -- 89
2019-11-19 13:00:00 16.4 11 Noroeste 26 Noroeste 1.2 -- -- 96
2019-11-19 12:00:00 16.4 18 Noroeste 32 Noroeste 0.6 -- -- 94
2019-11-19 11:00:00 17.5 16 Noroeste 30 Noroeste 0 -- -- 86
2019-11-19 10:00:00 17.1 11 Noroeste 24 Noroeste 0.2 -- -- 92
2019-11-19 09:00:00 17.3 11 Oeste 25 Oeste 0 -- -- 83
2019-11-19 08:00:00 15.7 9 Oeste 19 Oeste 0 -- -- 84
2019-11-19 07:00:00 15.3 9 Oeste 17 Oeste 0 -- -- 83
2019-11-19 06:00:00 15.1 7 Sudoeste 18 Oeste 0 -- -- 83
2019-11-19 05:00:00 14.9 7 Oeste 17 Oeste 0 -- -- 84
2019-11-19 04:00:00 14.6 5 Oeste 13 Oeste 0 -- -- 84
2019-11-19 03:00:00 15.2 6 Sudoeste 15 Sudoeste 0 -- -- 86
2019-11-19 02:00:00 15.1 6 Oeste 17 Oeste 0 -- -- 87
2019-11-19 01:00:00 15.3 6 Sudoeste 20 Oeste 0.2 -- -- 88
2019-11-19 00:00:00 15.4 5 Sudoeste 14 Sudoeste 0 -- -- 82
2019-11-18 23:00:00 15.4 2 Sudeste 12 Sudoeste 0 -- -- 84
2019-11-18 22:00:00 15.8 5 Oeste 10 Oeste 0 -- -- 85
2019-11-18 21:00:00 15.9 3 Oeste 9 Noroeste 0 -- -- 84
2019-11-18 20:00:00 16.6 5 Noroeste 11 Oeste 0 -- -- 82
2019-11-18 19:00:00 16.9 5 Noroeste 13 Oeste 0 -- -- 78
2019-11-18 18:00:00 17 5 Noroeste 10 Norte 0 -- -- 75
2019-11-18 17:00:00 17.8 5 Nordeste 13 Noroeste 0 -- -- 72
2019-11-18 16:00:00 18.7 6 Norte 18 Nordeste 0 -- -- 67
2019-11-18 15:00:00 18.6 6 Nordeste 16 Nordeste 0 -- -- 67
2019-11-18 14:00:00 19 5 Nordeste 18 Nordeste 0 -- -- 63
2019-11-18 13:00:00 18.8 5 Nordeste 21 Norte 0 -- -- 65
2019-11-18 12:00:00 19.1 8 Nordeste 17 Norte 0 -- -- 62
2019-11-18 11:00:00 18.4 5 Nordeste 17 Nordeste 0 -- -- 70
2019-11-18 10:00:00 16.9 4 Nordeste 10 Nordeste 0 -- -- 77
2019-11-18 09:00:00 15.9 2 Sudoeste 6 Oeste 0 -- -- 81
2019-11-18 08:00:00 15.3 2 Oeste 6 Oeste 0 -- -- 83
2019-11-18 07:00:00 15.1 3 Sudoeste 6 Oeste 0 -- -- 82
2019-11-18 06:00:00 14.8 3 Sudoeste 8 Oeste 0 -- -- 82
2019-11-18 05:00:00 14.3 4 Oeste 10 Oeste 0 -- -- 83
2019-11-18 04:00:00 14.3 4 Sudoeste 9 Sudoeste 0 -- -- 82
2019-11-18 03:00:00 14.2 4 Sudoeste 9 Sudoeste 0 -- -- 83
2019-11-18 02:00:00 14.3 5 Sudoeste 9 Sudoeste 0 -- -- 81
2019-11-18 01:00:00 14.9 3 Oeste 10 Norte 0 -- -- 77
2019-11-18 00:00:00 15.8 3 Norte 14 Norte 0 -- -- 74
2019-11-17 23:00:00 16.1 6 Norte 17 Norte 0 -- -- 73
2019-11-17 22:00:00 16.2 8 Norte 21 Nordeste 0 -- -- 74
2019-11-17 21:00:00 16.1 7 Nordeste 19 Nordeste 0 -- -- 78
2019-11-17 20:00:00 16.1 7 Nordeste 18 Nordeste 0 -- -- 78
2019-11-17 19:00:00 16.2 8 Norte 19 Nordeste 0 -- -- 77
2019-11-17 18:00:00 16 3 Oeste 17 Nordeste 0 -- -- 83
2019-11-17 17:00:00 16.5 8 Norte 21 Nordeste 0 -- -- 79
2019-11-17 16:00:00 17.3 8 Nordeste 26 Nordeste 0 -- -- 72
2019-11-17 15:00:00 17 11 Nordeste 22 Nordeste 0 -- -- 74
2019-11-17 14:00:00 15.8 5 Oeste 19 Este 0.2 -- -- 88
2019-11-17 13:00:00 16.5 12 Nordeste 27 Nordeste 0 -- -- 81
2019-11-17 12:00:00 17.4 6 Nordeste 32 Este 0 -- -- 66
2019-11-17 11:00:00 16.8 10 Nordeste 27 Nordeste 0 -- -- 72
2019-11-17 10:00:00 16.3 5 Norte 24 Nordeste 0 -- -- 74
2019-11-17 09:00:00 15.6 9 Norte 19 Norte 0 -- -- 82
2019-11-17 08:00:00 14.8 4 Noroeste 10 Noroeste 0.4 -- -- 87
2019-11-17 07:00:00 15.3 5 Nordeste 18 Norte 0 -- -- 81
2019-11-17 06:00:00 15 3 Noroeste 20 Noroeste 0.2 -- -- 84
2019-11-17 05:00:00 16.1 6 Norte 22 Nordeste 0 -- -- 68
2019-11-17 04:00:00 16.2 4 Norte 18 Norte 0 -- -- 71
2019-11-17 03:00:00 16.3 5 Norte 20 Nordeste 0 -- -- 74
2019-11-17 02:00:00 16.1 6 Norte 14 Norte 0 -- -- 79
2019-11-17 01:00:00 15.8 4 Noroeste 13 Noroeste 0 -- -- 78
2019-11-17 00:00:00 15.6 9 Norte 25 Norte 0 -- -- 81
2019-11-16 23:00:00 16 10 Norte 22 Nordeste 0 -- -- 80
2019-11-16 22:00:00 16.5 9 Norte 24 Norte 0 -- -- 80
2019-11-16 21:00:00 16.7 8 Norte 22 Norte 0 -- -- 76
2019-11-16 20:00:00 16.4 10 Norte 34 Nordeste 0 -- -- 81
2019-11-16 19:00:00 16.7 10 Norte 27 Norte 0 -- -- 77
2019-11-16 18:00:00 17.1 10 Norte 34 Noroeste 0 -- -- 68
2019-11-16 17:00:00 17.6 15 Noroeste 38 Norte 0 -- -- 70
2019-11-16 16:00:00 17.9 16 Norte 37 Noroeste 0 -- -- 65
2019-11-16 15:00:00 19 17 Norte 32 Noroeste 0 -- -- 55
2019-11-16 14:00:00 18.2 19 Noroeste 34 Noroeste 0 -- -- 62
2019-11-16 13:00:00 18.6 19 Noroeste 39 Noroeste 0 -- -- 59
2019-11-16 12:00:00 18.9 17 Norte 43 Norte 0 -- -- 58
2019-11-16 11:00:00 17.6 14 Noroeste 29 Noroeste 0 -- -- 66
2019-11-16 10:00:00 16.3 11 Norte 30 Noroeste 0 -- -- 77
2019-11-16 09:00:00 16.8 14 Noroeste 31 Norte 0 -- -- 70
2019-11-16 08:00:00 16.2 13 Norte 31 Noroeste 0 -- -- 76
2019-11-16 07:00:00 15.7 20 Noroeste 33 Noroeste 0 -- -- 78
2019-11-16 06:00:00 16.2 14 Noroeste 31 Noroeste 0 -- -- 76
2019-11-16 05:00:00 16 13 Noroeste 27 Norte 0 -- -- 76
2019-11-16 04:00:00 15.8 12 Noroeste 25 Noroeste 0 -- -- 80
2019-11-16 03:00:00 14.9 8 Oeste 32 Norte 0 -- -- 82
2019-11-16 02:00:00 15.6 15 Noroeste 28 Noroeste 0 -- -- 82
2019-11-16 01:00:00 15.3 11 Noroeste 29 Norte 0 -- -- 81
2019-11-16 00:00:00 15.8 9 Noroeste 22 Norte 0 -- -- 77
2019-11-15 23:00:00 16 12 Norte 32 Norte 0 -- -- 79
2019-11-15 22:00:00 16.2 8 Norte 25 Norte 0 -- -- 76
2019-11-15 21:00:00 16.4 15 Norte 31 Noroeste 0.2 -- -- 78
2019-11-15 20:00:00 16.4 9 Norte 28 Noroeste 0.2 -- -- 81
2019-11-15 19:00:00 16.5 9 Norte 30 Noroeste 0 -- -- 72
2019-11-15 18:00:00 16.9 14 Norte 32 Norte 0 -- -- 70
2019-11-15 17:00:00 17.4 15 Norte 32 Noroeste 0 -- -- 69
2019-11-15 16:00:00 17.9 10 Norte 29 Norte 0 -- -- 68
2019-11-15 15:00:00 17.9 14 Norte 33 Norte 0 -- -- 72
2019-11-15 14:00:00 18 17 Norte 32 Norte 0.2 -- -- 68
2019-11-15 13:00:00 17.9 11 Norte 25 Nordeste 0 -- -- 77
2019-11-15 12:00:00 17.1 10 Nordeste 24 Noroeste 0 -- -- 86
2019-11-15 11:00:00 16.8 13 Norte 30 Nordeste 0.2 -- -- 89
2019-11-15 10:00:00 16.7 14 Norte 27 Norte 0.4 -- -- 90
2019-11-15 09:00:00 16.3 8 Noroeste 26 Noroeste 0 -- -- 93
2019-11-15 08:00:00 15.5 8 Oeste 32 Noroeste 1 -- -- 96
2019-11-15 07:00:00 16.9 14 Noroeste 24 Norte 0.4 -- -- 87
2019-11-15 06:00:00 16.8 10 Noroeste 26 Noroeste 0.2 -- -- 86
2019-11-15 05:00:00 16.7 6 Oeste 15 Oeste 0 -- -- 79
2019-11-15 04:00:00 17 6 Noroeste 18 Noroeste 0 -- -- 75
2019-11-15 03:00:00 16.9 8 Norte 23 Noroeste 0 -- -- 76
2019-11-15 02:00:00 17.2 14 Noroeste 26 Noroeste 0 -- -- 82
2019-11-15 01:00:00 16.8 11 Norte 19 Norte 0 -- -- 74
2019-11-15 00:00:00 16.3 3 Norte 33 Nordeste 0.2 -- -- 88
2019-11-14 23:00:00 17.5 7 Norte 22 Norte 0 -- -- 82
2019-11-14 22:00:00 17.5 8 Norte 26 Norte 0.4 -- -- 82
2019-11-14 21:00:00 17.9 8 Norte 26 Norte 0 -- -- 80
2019-11-14 20:00:00 18 8 Norte 21 Nordeste 0 -- -- 78
2019-11-14 19:00:00 17.9 7 Nordeste 16 Norte 0 -- -- 85
2019-11-14 18:00:00 18.1 5 Norte 16 Norte 0 -- -- 84
2019-11-14 17:00:00 18.7 8 Norte 18 Noroeste 0 -- -- 74
2019-11-14 16:00:00 19.1 8 Norte 21 Nordeste 0 -- -- 74
2019-11-14 15:00:00 19 7 Norte 23 Norte 0 -- -- 79
2019-11-14 14:00:00 18.8 8 Nordeste 23 Nordeste 0.4 -- -- 80
2019-11-14 13:00:00 19.2 8 Nordeste 24 Norte 0 -- -- 77
2019-11-14 12:00:00 19.5 11 Nordeste 26 Nordeste 0 -- -- 79
2019-11-14 11:00:00 19.9 9 Nordeste 19 Nordeste 0 -- -- 70
2019-11-14 10:00:00 19.4 6 Nordeste 20 Norte 0 -- -- 74
2019-11-14 09:00:00 18.8 5 Noroeste 17 Norte 0 -- -- 78
2019-11-14 08:00:00 17.5 5 Noroeste 13 Noroeste 0 -- -- 83
2019-11-14 07:00:00 17.1 4 Oeste 14 Noroeste 0 -- -- 78
2019-11-14 06:00:00 17.2 6 Noroeste 16 Noroeste 0 -- -- 77
2019-11-14 05:00:00 17.2 8 Noroeste 19 Noroeste 0 -- -- 78
2019-11-14 04:00:00 17.3 6 Noroeste 18 Noroeste 0 -- -- 82
2019-11-14 03:00:00 17.6 10 Noroeste 22 Noroeste 0 -- -- 75
2019-11-14 02:00:00 17.5 11 Noroeste 24 Norte 0 -- -- 75
2019-11-14 01:00:00 17.5 12 Noroeste 24 Norte 0 -- -- 75
2019-11-14 00:00:00 17.5 8 Noroeste 17 Noroeste 0 -- -- 75
2019-11-13 23:00:00 17.6 9 Noroeste 24 Noroeste 0 -- -- 73
2019-11-13 22:00:00 17.7 10 Norte 25 Norte 0 -- -- 73
2019-11-13 21:00:00 17.7 10 Noroeste 24 Norte 0 -- -- 76
2019-11-13 20:00:00 17.7 9 Noroeste 27 Norte 0 -- -- 75
2019-11-13 19:00:00 18.1 13 Norte 26 Noroeste 0 -- -- 73
2019-11-13 18:00:00 18.5 13 Noroeste 26 Noroeste 0 -- -- 77
2019-11-13 17:00:00 19 13 Norte 27 Norte 0 -- -- 74
2019-11-13 16:00:00 19.7 17 Noroeste 32 Norte 0 -- -- 69
2019-11-13 15:00:00 20.3 16 Noroeste 28 Noroeste 0 -- -- 68
2019-11-13 14:00:00 20.1 13 Norte 25 Norte 0 -- -- 69
2019-11-13 13:00:00 20.1 10 Norte 27 Nordeste 0 -- -- 71
2019-11-13 12:00:00 20.1 15 Noroeste 27 Noroeste 0 -- -- 72
2019-11-13 11:00:00 19.7 10 Norte 24 Noroeste 0 -- -- 71
2019-11-13 10:00:00 19.3 10 Norte 22 Norte 0 -- -- 76
2019-11-13 09:00:00 18.2 9 Norte 24 Norte 0 -- -- 78
2019-11-13 08:00:00 17.8 11 Norte 24 Noroeste 0.2 -- -- 85
2019-11-13 07:00:00 17.6 11 Noroeste 23 Noroeste 0 -- -- 84
2019-11-13 06:00:00 17.4 9 Noroeste 20 Noroeste 0 -- -- 86
2019-11-13 05:00:00 17.1 6 Noroeste 17 Noroeste 0 -- -- 87
2019-11-13 04:00:00 17 9 Noroeste 18 Oeste 0 -- -- 87
2019-11-13 03:00:00 16.9 10 Oeste 21 Oeste 0 -- -- 87
2019-11-13 02:00:00 16.9 9 Oeste 21 Oeste 0 -- -- 86
2019-11-13 01:00:00 16.9 11 Noroeste 21 Noroeste 0 -- -- 87
2019-11-13 00:00:00 16.8 8 Noroeste 19 Noroeste 0 -- -- 87
2019-11-12 23:00:00 16.9 9 Noroeste 18 Noroeste 0 -- -- 87
2019-11-12 22:00:00 17.1 9 Noroeste 18 Noroeste 0 -- -- 86
2019-11-12 21:00:00 17.4 8 Noroeste 19 Noroeste 0 -- -- 84
2019-11-12 20:00:00 17.6 13 Noroeste 31 Noroeste 0 -- -- 83
2019-11-12 19:00:00 17.9 18 Noroeste 30 Noroeste 0 -- -- 84
2019-11-12 18:00:00 18.2 15 Noroeste 28 Noroeste 0 -- -- 88
2019-11-12 17:00:00 18.9 14 Noroeste 26 Noroeste 0 -- -- 87
2019-11-12 16:00:00 19.2 15 Norte 30 Noroeste 0.2 -- -- 89
2019-11-12 15:00:00 20 18 Noroeste 28 Noroeste 0 -- -- 84
2019-11-12 14:00:00 20.3 15 Noroeste 29 Norte 0 -- -- 84
2019-11-12 13:00:00 19.7 15 Noroeste 33 Noroeste 0.2 -- -- 85
2019-11-12 12:00:00 20.4 15 Noroeste 27 Noroeste 0 -- -- 82
2019-11-12 11:00:00 19.2 13 Noroeste 28 Noroeste 0 -- -- 88
2019-11-12 10:00:00 18.6 12 Noroeste 24 Noroeste 0 -- -- 93
2019-11-12 09:00:00 17.9 6 Oeste 22 Norte 0.2 -- -- 91
2019-11-12 08:00:00 18.3 8 Noroeste 25 Noroeste 0 -- -- 84
2019-11-12 07:00:00 17.9 10 Noroeste 34 Noroeste 0.2 -- -- 86
2019-11-12 06:00:00 18.1 17 Noroeste 31 Noroeste 0 -- -- 83
2019-11-12 05:00:00 18 15 Noroeste 32 Noroeste 0 -- -- 83
2019-11-12 04:00:00 18.1 17 Noroeste 30 Noroeste 0 -- -- 78
2019-11-12 03:00:00 18 15 Noroeste 30 Norte 0 -- -- 81
2019-11-12 02:00:00 17.9 15 Noroeste 35 Noroeste 0 -- -- 83
2019-11-12 01:00:00 18.2 15 Noroeste 36 Noroeste 0 -- -- 78
2019-11-12 00:00:00 18.3 12 Noroeste 30 Noroeste 0 -- -- 79